www.pogodaiklimat.ru

Погода и климат >> Архив погоды >> Пакистан >> Badin


ПОГОДА в Badin

  • Прогноз погоды в Badin
  • Монитор погоды в Badin
  • Климат города

АРХИВ ПОГОДЫ в Badin

Время (UTC), дата Ветер
(напр.,м/с)
 
Видим.   Явления Облачность Т
(С)
Тd
(С)
f
(%)
Тe
(С)
Тes
(С)
Комфортность P
(гПа)
Po
(гПа)
Тmin
(С)
Tmax
(С)
R
(мм)
R24
(мм)
S
(см)
00 16.05 ЮЗ 2 4000 м ясно +27.0 +23.4 81 +37 +37 очень
душно
1001.8 1000.5
03 16.05 ЮЗ 2 10 км ясно +30.0 +23.5 68 +41 +46 опасность
перегрева
1003.9 1002.6 +26.1
06 16.05 ЮЗ 5 10 км ясно +37.0 +22.8 44 +46 +56 опасность
перегрева
1004.6 1005.0
09 16.05 З 3 10 км ясно +40.0 +22.2 36 +48 +65 опасность
перегрева
1002.5 1000.0
12 16.05 З 3 10 км ясно +39.0 +22.7 39 +48 +52 опасность
перегрева
1000.9 999.7 +41.1
15 16.05 З 2 4000 м ясно +33.0 +24.6 61 +46 +46 опасность
перегрева
1002.8 1000.0
18 16.05 З 2 4000 м ясно +30.5 +24.1 69 +42 +42 опасность
перегрева
1004.4 1000.0
21 16.05 З 2 4000 м ясно +29.0 +24.0 74 +40 +40 очень
душно
1003.4 1000.0
00 17.05 З 2 4000 м ясно +28.0 +24.4 81 +39 +39 очень
душно
1002.4 1001.1
03 17.05 З 2 10 км ясно +31.0 +23.9 66 +43 +48 опасность
перегрева
1003.9 1002.6 +27.3
06 17.05 З 5 10 км ясно +38.0 +22.3 41 +47 +57 опасность
перегрева
1003.9 1004.0
09 17.05 З 5 10 км ясно +43.5 +19.4 25 +48 +57 опасность
перегрева
1001.7 1002.0
12 17.05 З 4 10 км ясно +41.5 +20.5 30 +47 +50 опасность
перегрева
999.9 998.7 +44.1
15 17.05 З 3 4000 м ясно +34.0 +22.5 51 +43 +43 опасность
перегрева
1001.4 1000.0
18 17.05 З 2 4000 м ясно +31.5 +22.0 57 +40 +40 очень
душно
1002.9 1000.0
21 17.05 З 3 4000 м ясно +30.0 +23.3 67 +40 +40 очень
душно
1001.7 1002.0
00 18.05 З 1 4000 м ясно +29.0 +23.2 71 +39 +39 очень
душно
1000.6 999.3
03 18.05 З 3 4000 м пыль ясно +31.5 +23.6 63 +43 +47 опасность
перегрева
1003.0 1001.7 +28.1
06 18.05 З 1 2000 м пыль ясно +37.5 +22.5 42 +46 +71 опасность
перегрева
1003.7 1000.0
09 18.05 З 1 2000 м пыль {метель} ясно +41.0 +20.7 31 +47 +69 опасность
перегрева
1002.1 1000.0
12 18.05 ЮЗ 2 10 км ясно +40.5 +21.0 33 +47 +52 опасность
перегрева
1000.4 999.2 +42.1
15 18.05 ЮЗ 3 4000 м ясно +33.5 +23.5 56 +44 +44 опасность
перегрева
1002.1 1000.0
18 18.05 ЮЗ 1 4000 м ясно +30.5 +24.1 69 +42 +42 опасность
перегрева
1003.3 1000.0
21 18.05 ЮЗ 2 4000 м ясно +29.5 +24.5 75 +42 +42 опасность
перегрева
1002.1 1000.0
00 19.05 ЮЗ 1 4000 м ясно +29.0 +24.8 78 +41 +41 опасность
перегрева
1001.1 999.8
03 19.05 ЮЗ 1 10 км ясно +31.0 +24.6 69 +44 +50 опасность
перегрева
1002.4 1001.1 +28.1
06 19.05 З 2 2000 м мгла ясно +37.0 +22.8 44 +46 +66 опасность
перегрева
1003.3 1003.0
09 19.05 З 1 2000 м мгла ясно +42.0 +20.2 29 +47 +70 опасность
перегрева
1001.2 1001.0
12 19.05 СВ 2 2000 м мгла {метель} 4/4 900 м
[St]
+42.0 +20.2 29 +47 +50 опасность
перегрева
999.8 998.6 +43.0
15 19.05 З 1 4000 м ясно +36.0 +21.5 43 +44 +44 опасность
перегрева
1001.2 1000.0
18 19.05 З 2 4000 м ясно +32.0 +22.6 58 +42 +42 опасность
перегрева
1002.9 1000.0
21 19.05 З 2 4000 м ясно +30.5 +23.3 65 +41 +41 опасность
перегрева
1001.8 1000.0
00 20.05 З 2 4000 м ясно +29.5 +23.8 71 +40 +40 очень
душно
1000.9 999.6
03 20.05 З 2 10 км ясно +31.0 +23.9 66 +43 +48 опасность
перегрева
1003.5 1002.2 +28.5
06 20.05 ЮВ 1 10 км ясно +36.0 +22.4 46 +45 +70 опасность
перегрева
1003.5 1004.3
09 20.05 В 1 10 км ясно +41.5 +18.5 27 +45 +69 опасность
перегрева
1002.2 1000.0
12 20.05 ЮВ 1 10 км ясно +42.5 +17.9 24 +45 +51 опасность
перегрева
1000.7 999.5 +43.1
15 20.05 штиль 0 4000 м ясно +37.5 +20.7 38 +44 +44 опасность
перегрева
1001.9 1000.0
18 20.05 З 1 4000 м ясно +33.0 +23.0 56 +43 +43 опасность
перегрева
1003.7 1000.0
21 20.05 З 1 4000 м ясно +31.0 +23.1 63 +41 +41 опасность
перегрева
1002.8 1000.0
00 21.05 З 1 4000 м ясно +29.5 +23.8 71 +40 +40 очень
душно
1001.9 1000.6
03 21.05 З 1 10 км ясно +31.0 +23.9 66 +43 +49 опасность
перегрева
1004.0 1002.7 +28.5
06 21.05 СВ 3 10 км ясно +40.0 +19.3 30 +44 +60 опасность
перегрева
1004.2 1004.0
09 21.05 СВ 2 10 км ясно +42.0 +18.1 25 +45 +66 опасность
перегрева
1002.2 1000.0
12 21.05 СВ 1 10 км ясно +42.0 +18.1 25 +45 +50 опасность
перегрева
1001.1 999.9 +43.1
15 21.05 штиль 0 4000 м ясно +36.5 +19.4 37 +42 +42 опасность
перегрева
1002.4 1000.0
18 21.05 штиль 0 4000 м ясно +32.0 +20.0 49 +38 +38 очень
душно
1004.0 1000.0
21 21.05 СЗ 1 4000 м ясно +30.5 +20.9 57 +38 +38 очень
душно
1003.1 1000.0
00 22.05 СЗ 1 4000 м ясно +29.0 +21.6 64 +37 +37 очень
душно
1002.2 1001.0
03 22.05 С 1 10 км ясно +31.0 +20.6 54 +38 +44 очень
душно
1005.4 1004.1 +28.1
06 22.05 СВ 3 10 км ясно +40.0 +15.0 23 +41 +57 опасность
перегрева
1006.4 1006.0
09 22.05 С 1 10 км ясно +42.0 +17.1 24 +45 +67 опасность
перегрева
1003.7 1000.0
12 22.05 штиль 0 10 км ясно +43.0 +15.2 20 +44 +50 опасность
перегрева
1002.5 1001.3 +43.5
15 22.05 штиль 0 4000 м ясно +37.0 +17.1 31 +40 +40 очень
душно
1003.7 1004.0
18 22.05 штиль 0 4000 м ясно +31.5 +18.5 46 +36 +36 очень
душно
1005.0 1000.0

 

Местоположение метеостанции Badin (Пакистан): широта 24.63 долгота 68.90 высота над уровнем моря 11 м.

В архиве по умолчанию представлена погода в Badin за последнюю неделю. Архивные данные за месяц целиком и за предыдущие месяцы, начиная с января 2011 года, Вы можете получить, выбрав интересующий диапазон дат из раскрывающегося списка и нажав кнопку "Ввод!".


*Определитесь, кто Вы:
робот инопланетянин человек

Внимание! Время в таблицах - всемирное. Для получения местного времени необходимо прибавить поправку, которая в Badin равна 5 ч.

Смотрите также архив погоды в соседних городах и на ближайших метеорологических станциях:

Погода в Sakrand (Пакистан) (84 км)
Погода в Hyderabad (Пакистан) (96 км)
Погода в Chhor (Пакистан) (133 км)
Погода в Naliya (Gujarat, Индия) (154 км)
Погода в Bhuj-Rudramata (Gujarat, Индия) (172 км)
Погода в Karachi (Пакистан) (181 км)
Погода в Nawabshah (Пакистан) (188 км)
Погода в Mandvi (Gujarat, Индия) (205 км)
Погода в Kandla (Gujarat, Индия) (209 км)
Погода в New Kandla (Gujarat, Индия) (226 км)

Пояснения к столбцам:

Ветер - указаны скорость ветра в м/с - средняя за 10 мин, порывы в срок и между сроками (в фигурных скобках) и направление, откуда дует ветер: С - северный, СВ - северо-восточный, В - восточный, ЮВ - юго-восточный, Ю - южный, ЮЗ - юго-западный, З - западный, СЗ - северо-западный.
Видимость - горизонтальная дальность видимости в метрах или километрах. При видимости от 1 до 10 км при отсутствии осадков обычно наблюдается дымка, при ухудшении видимости до 1 км и менее - туман. В сухую погоду видимость может ухудшаться дымом, пылью или мглою.
Явления - указаны атмосферные явления, наблюдавшиеся в срок или в последний час перед сроком; фигурными скобками обозначены явления, наблюдавшиеся между сроками (за 1-3 часа до срока); квадратными скобками обозначены град или гололедные отложения с указанием их диаметра в мм.
Облачность - указаны через наклонную черту общая и нижняя облачность в баллах и высота нижней границы облаков в метрах; квадратными скобками обозначены формы облаков: Ci - перистые, Cs - перисто-слоистые, Cc - перисто-кучевые, Ac - высококучевые, As - высокослоистые, Sc - слоисто-кучевые, Ns - слоисто-дождевые, Cu - кучевые, Cb - кучево-дождевые. Подробнее классификацию облаков см. в Атласе облаков (PDF).
T - Температура воздуха - температура, измеренная на высоте 2 м над землей.
Td - Температура точки росы - температура, при понижении до которой содержащийся в воздухе водяной пар достигнет насыщения.
f - Относительная влажность воздуха - влажноcть воздуха, измеренная на высоте 2 м над землей.
Te - Эффективная температура - температура, которую ощущает одетый по сезону человек в тени. Характеристика душности погоды. При расчете учитывается влияние влажности воздуха и скорости ветра на теплоощущения человека.
Tes - Эффективная температура на солнце - температура, которую ощущает человек, с поправкой на солнечный нагрев. Характеристика знойности погоды. Зависит от высоты солнца над горизонтом, облачности и скорости ветра. Ночью, в пасмурную погоду, а также при ветре 12 м/с и более поправка равна нулю.
P - Атмосферное давление - приведенное к уровню моря атмосферное давление.
Po - Атмосферное давление - измеренное на уровне метеостанции атмосферное давление.
Tmin - Минимальная температура - минимум температуры воздуха на высоте 2 м над землей.
Tmax - Максимальная температура - максимум температуры воздуха на высоте 2 м над землей.
R - Количество осадков - Количество выпавших осадков за период времени, мм. При наведении курсора мыши на число - период времени, за который выпало указанное количество осадков.
R24 - Количество осадков - Количество выпавших осадков за 24 часа, мм.
S - Снежный покров - Высота снежного покрова, см. При наведении курсора мыши на число - состояние снежного покрова и степень покрытия местности в баллах.